This is the latest recevied weather packets stored in our database for station/object VA3JLF-1. If no packets are shown the sender has not sent any weather packets the latest 10 day(s).
| Time | Temp. | Humidity | Pressure | Rain* | Wind** | Luminosity | Snow |
|---|---|---|---|---|---|---|---|
| 1777364421 | 13.33° C | 63% | 1011.2 hPa | 0 mm | - | - | - |
| 1777363822 | 13.33° C | 63% | 1011.4 hPa | 0 mm | - | - | - |
| 1777363222 | 13.33° C | 63% | 1011.4 hPa | 0 mm | - | - | - |
| 1777362622 | 13.89° C | 62% | 1011.4 hPa | 0 mm | - | - | - |
| 1777362022 | 13.89° C | 63% | 1011.4 hPa | 0 mm | - | - | - |
| 1777361421 | 13.33° C | 63% | 1011.4 hPa | 0 mm | - | - | - |
| 1777360822 | 13.33° C | 63% | 1011.7 hPa | 0 mm | - | - | - |
| 1777360223 | 13.33° C | 62% | 1011.7 hPa | 0 mm | - | - | - |
| 1777359622 | 13.89° C | 61% | 1011.8 hPa | 0 mm | - | - | - |
| 1777359022 | 13.89° C | 61% | 1012.2 hPa | 0 mm | - | - | - |
| 1777358421 | 13.89° C | 60% | 1012.3 hPa | 0 mm | - | - | - |
| 1777357823 | 13.89° C | 60% | 1012.5 hPa | 0 mm | - | - | - |
| 1777357222 | 13.33° C | 61% | 1012.5 hPa | 0 mm | - | - | - |
| 1777356621 | 12.78° C | 62% | 1012.7 hPa | 0 mm | - | - | - |
| 1777356021 | 12.78° C | 62% | 1013 hPa | 0 mm | - | - | - |
| 1777355422 | 12.22° C | 63% | 1012.9 hPa | 0 mm | - | - | - |
| 1777354822 | 12.78° C | 62% | 1013.2 hPa | 0 mm | - | - | - |
| 1777354223 | 12.78° C | 61% | 1013.3 hPa | 0 mm | - | - | - |
| 1777353621 | 13.33° C | 60% | 1013.2 hPa | 0 mm | - | - | - |
| 1777353022 | 13.33° C | 58% | 1013 hPa | 0 mm | - | - | - |
| 1777352421 | 13.89° C | 58% | 1013.1 hPa | 0 mm | - | - | - |
| 1777351822 | 14.44° C | 56% | 1012.9 hPa | 0 mm | - | - | - |
| 1777351221 | 14.44° C | 55% | 1012.7 hPa | 0 mm | - | - | - |
| 1777350622 | 13.33° C | 58% | 1012.8 hPa | 0 mm | - | - | - |
| 1777350021 | 12.78° C | 59% | 1012.9 hPa | 0 mm | - | - | - |
* Rain latest hour (hover to see other rain measurements)
** Current wind speed in m/s (hover to see current wind gust speed)